Flag for U.S.A. Weather past 2 weeks in Peoria, Illinois, U.S.A.

Now
21 °F

Clear.


Feels Like: 21 °F
Forecast: 18 / 33 °F
Wind: No wind

Location: Greater Peoria Regional Airport

Current Time: Dec 19, 2014 at 2:37:08 AM

Latest Report: Dec 19, 2014 at 1:54 AM


Visibility: 7 mi

Pressure: 30.33 "Hg

Humidity: 85%

Dew point: 17 °F

Location of PeoriaLocation

Historic Weather in Peoria — Graph

°F

Peoria temperature yesterday

Maximum temperature yesterday: 30 °F (at 2:54 PM)
Minimum temperature yesterday: 19 °F (at 5:54 AM)
Average temperature yesterday: 25 °F

Past Weeks' High & Low Weather Summary

 TemperatureHumidityPressure
High52 °F (Dec 13, 2:54 PM)97% (Dec 14, 9:54 PM)30.65 "Hg (Dec 14, 9:54 PM)
Low19 °F (Dec 18, 5:54 AM)50% (Dec 4, 10:54 AM)29.64 "Hg (Dec 15, 9:54 PM)
Average35 °F78%30.25 "Hg
* Reported Dec 4 12:54 AM — Dec 19 12:54 AM, Peoria, Weather by CustomWeather, © 2014

Note: Actual official high and low records may vary slightly from our data, if they occured in-between our weather recording intervals... More about our weather records

Advertising

Peoria weather history for previous 24 hours

 ConditionsComfort  
Time TempWeatherWind HumidityBarometerVisibility
12:54 AM
Dec 19
21 °FClear.No wind85%30.32 "Hg7 mi
11:54 PM
Dec 18
23 °FPassing clouds.No wind78%30.33 "Hg8 mi
10:54 PM25 °FPassing clouds.No wind78%30.33 "Hg8 mi
9:54 PM25 °FClear.No wind75%30.32 "Hg10 mi
8:54 PM27 °FOvercast.No wind72%30.31 "Hg10 mi
7:54 PM26 °FMostly cloudy.No wind74%30.30 "Hg10 mi
6:54 PM25 °FClear.No wind75%30.31 "Hg10 mi
5:54 PM27 °FPassing clouds.No wind69%30.30 "Hg10 mi
4:54 PM29 °FPartly cloudy.3 mph64%30.29 "Hg10 mi
3:54 PM29 °FSunny.5 mph64%30.28 "Hg10 mi
2:54 PM30 °FBroken clouds.5 mph61%30.27 "Hg10 mi
1:54 PM29 °FOvercast.3 mph66%30.27 "Hg10 mi
12:54 PM28 °FOvercast.No wind69%30.28 "Hg10 mi
11:54 AM28 °FOvercast.No wind69%30.30 "Hg10 mi
10:54 AM27 °FOvercast.No wind75%30.33 "Hg10 mi
9:54 AM25 °FOvercast.No wind78%30.34 "Hg8 mi
8:54 AM24 °FOvercast.3 mph81%30.35 "Hg9 mi
7:54 AM22 °FOvercast.3 mph82%30.34 "Hg9 mi
6:54 AM20 °FClear.No wind82%30.34 "Hg10 mi
5:54 AM19 °FClear.No wind81%30.33 "Hg10 mi
4:54 AM20 °FClear.3 mph82%30.31 "Hg10 mi
3:54 AM20 °FClear.3 mph82%30.31 "Hg9 mi
2:54 AM21 °FClear.No wind85%30.33 "Hg10 mi
Weather by CustomWeather, © 2014

See weather overviewHow to use our weather pages